DELTA 1 DEB, 7030

Orbit data source: Space-Track

DELTA 1 DEB, 7030 is space debris in SSO originally from a launch on Tue, 06 Nov 1973 UTC launched from the Air Force Western Test Range (AFWTR). Debris objects in space refer to the collection of defunct objects orbiting the Earth. Examples of debris include non-operational satellites, rocket bodies, and fragments generated from explosions, collisions, or faulty payload assembly.

Loading next visibility...
Identifier
7030, 1973-086W
Orbit
SSO
Country
Flag of USUS
Related business
Manufacturer
Unknown
Mission
Spacecraft
Bus & Motor
Unknown
Mass
Unknown
Launch date (UTC)
1973-11-06 (52 years ago)
Launch vehicle
Unknown
Launch site
Air Force Western Test Range (AFWTR)
Object type
Payload
Rocket body
Debris
Shape & HBR
Unknown shape, 0.1 m
Radar Cross Section
Small (<0.1 m²)

Expand to show TLE details & history
Last TLE update: 2 days ago

TLE from 2 days ago
0 DELTA 1 DEB
1 07030U 73086W   25352.52976670  .00000006  00000-0  43415-3 0  9999
2 07030 101.9227 348.8351 0089810 148.9447 331.3548 12.24085324327548
Epoch: 2025-12-18T12:42Z
TLE epoch observation values (Epoch: 2025-12-18T12:42:51.842Z)
Latitude
58.19934°
Longitude
-89.4567°
Altitude
1,521.861 km
Speed
7.138 km/s
True Right ascension
12h 34m 34s
True Declination
58° 03' 36"
Sunlit
Object was in daylight at epoch
Visualization orbit readout
Latitude
Unknown
Longitude
Unknown
Altitude
Unknown
Speed
Unknown
Apparent Right ascension
Unknown
Apparent Declination
Unknown
Sunlit
N/A
Visualization observer readout
Local Sidereal Time
01:48:59
Azimuth
Unknown
Elevation
Unknown
Doppler factor
Unknown
Orbital elements
Apogee altitude
1,643.791 km
Perigee altitude
1,500.984 km
Semi-major axis
7,950.525 km
Eccentricity
0.00898
Inclination
101.9227°
RAAN
348.8351°
Arg. of periapsis
148.9447°
True anomaly
330.85654°
Mean anomaly
331.3548°
Eccentric anomaly
331.10616°
Mean motion
3.06161 °/min
Orbital period
117.59 mins
BSTAR
0.00043415
Loading maneuver chart data...
Computing Atmospheric mass density...
Loading historical data...
Loading historical data...
Loading historical data...
Loading historical data...
Loading historical data...
Loading historical data...
Loading historical data...

Documentation

Showing up to 5 results
|